This is the latest recevied weather packets stored in our database for station/object DB0RV-13. If no packets are shown the sender has not sent any weather packets the latest 10 day(s).
| Time | Temp. | Humidity | Pressure | Rain* | Wind** | Luminosity | Snow |
|---|---|---|---|---|---|---|---|
| 1778155802 | 12.78° C | 65% | 1013.2 hPa | - | - | - | - |
| 1778155501 | 12.78° C | 66% | 1013.2 hPa | - | - | - | - |
| 1778155202 | 12.78° C | 68% | 1013.2 hPa | - | - | - | - |
| 1778154902 | 12.78° C | 69% | 1013.3 hPa | - | - | - | - |
| 1778154602 | 12.22° C | 69% | 1013.4 hPa | - | - | - | - |
| 1778154301 | 12.78° C | 67% | 1013.4 hPa | - | - | - | - |
| 1778154002 | 12.78° C | 70% | 1013.4 hPa | - | - | - | - |
| 1778153702 | 11.67° C | 68% | 1013.4 hPa | - | - | - | - |
| 1778153402 | 12.22° C | 68% | 1013.5 hPa | - | - | - | - |
| 1778153104 | 12.22° C | 70% | 1013.5 hPa | - | - | - | - |
| 1778152802 | 11.67° C | 68% | 1013.5 hPa | - | - | - | - |
| 1778152502 | 12.22° C | 70% | 1013.5 hPa | - | - | - | - |
| 1778152201 | 12.22° C | 68% | 1013.5 hPa | - | - | - | - |
| 1778151903 | 12.22° C | 70% | 1013.5 hPa | - | - | - | - |
| 1778151601 | 12.22° C | 69% | 1013.5 hPa | - | - | - | - |
| 1778151302 | 12.22° C | 71% | 1013.5 hPa | - | - | - | - |
| 1778151001 | 11.67° C | 71% | 1013.6 hPa | - | - | - | - |
| 1778150702 | 11.67° C | 70% | 1013.6 hPa | - | - | - | - |
| 1778150402 | 11.67° C | 73% | 1013.6 hPa | - | - | - | - |
| 1778150102 | 11.11° C | 74% | 1013.6 hPa | - | - | - | - |
| 1778149802 | 11.11° C | 73% | 1013.7 hPa | - | - | - | - |
| 1778149502 | 11.11° C | 71% | 1013.7 hPa | - | - | - | - |
| 1778149202 | 11.67° C | 73% | 1013.7 hPa | - | - | - | - |
| 1778148901 | 11.67° C | 73% | 1013.7 hPa | - | - | - | - |
| 1778148602 | 11.67° C | 74% | 1013.7 hPa | - | - | - | - |
* Rain since midnight (hover to see other rain measurements)
** Current wind speed in m/s (hover to see current wind gust speed)